Wheeler AAF, HI

10:07 AM HST on October 20, 2017 (GMT -1000)
Wheeler Army Air Field

Weather History for PHHI - October, 2012

Change the Weather History Date:

Monday, October 8, 2012

  Actual Average Record
Temperature  
Mean Temperature 76 °F -  
Max Temperature 82 °F 80 °F 89 °F (2002)
Min Temperature 71 °F 67 °F 63 °F (2010)
Cooling Degree Days 12    
Growing Degree Days 26 (Base 50)    
Moisture  
Dew Point 69 °F    
Average Humidity 84    
Maximum Humidity 94    
Minimum Humidity 62    
Precipitation  
Precipitation 0.02 in - - ()
Sea Level Pressure  
Sea Level Pressure 29.91 in    
Wind  
Wind Speed 5 mph (SSE)    
Max Wind Speed 12 mph    
Max Gust Speed 21 mph    
Visibility 9 miles    
Events Rain    
Averages and records for this station are not official NWS values.
T = Trace of Precipitation, MM = Missing Value Source: NWS Daily Summary

Daily Weather History Graph

Daily Weather History Graph

Search for Another Location

Airport or City:

Trip Planner

Search our weather history database for the weather conditions in past years. The results will help you decide how hot, cold, wet, or windy it might be!

Date:

Astronomy

Oct. 08, 2012 Rise Set
Actual Time 6:25 AM HST 6:12 PM HST
Civil Twilight 6:03 AM HST 6:35 PM HST
Nautical Twilight 5:37 AM HST 7:01 PM HST
Astronomical Twilight 5:11 AM HST 7:26 PM HST
Moon 12:02 AM HST (10/8) 1:26 PM HST (10/8)
Length of Visible Light 12h 31m
Length of Day
11h 47m
Last Quarter, 44% of the Moon is Illuminated
Oct 8
Last Quarter
Oct 15
New
Oct 21
First Quarter
Oct 29
Full
Nov 6
Last Quarter

Hourly Weather History & Observations

Time (HST) Temp. Heat Index Dew Point Humidity Pressure Visibility Wind Dir Wind Speed Gust Speed Precip Events Conditions
12:08 AM 73.4 °F - 69.8 °F 88% 29.88 in 8.0 mi SSW 5.8 mph - N/A   Light Drizzle
12:34 AM 73.4 °F - 69.8 °F 88% 29.87 in 8.0 mi SSE 3.5 mph - N/A   Mostly Cloudy
12:55 AM 72.7 °F - 69.8 °F 91% 29.87 in 8.0 mi SE 3.5 mph - 0.02 in   Mostly Cloudy
1:55 AM 73.0 °F - 69.6 °F 89% 29.86 in 10.0 mi Variable 5.8 mph - N/A   Mostly Cloudy
2:32 AM 73.4 °F - 69.8 °F 88% 29.86 in 10.0 mi South 9.2 mph - N/A   Light Drizzle
2:41 AM 73.4 °F - 69.8 °F 88% 29.86 in 10.0 mi South 6.9 mph - N/A   Mostly Cloudy
2:55 AM 72.9 °F - 69.3 °F 88% 29.85 in 10.0 mi South 4.6 mph - 0.00 in   Mostly Cloudy
3:19 AM 73.4 °F - 69.8 °F 88% 29.85 in 10.0 mi Variable 3.5 mph - N/A Rain Light Rain
3:29 AM 73.4 °F - 69.8 °F 88% 29.85 in 10.0 mi Variable 4.6 mph - N/A   Overcast
3:48 AM 73.4 °F - 69.8 °F 88% 29.85 in 10.0 mi SSE 4.6 mph - N/A   Light Drizzle
3:55 AM 72.7 °F - 69.4 °F 90% 29.85 in 10.0 mi SSE 3.5 mph - 0.00 in   Light Drizzle
3:57 AM 73.4 °F - 69.8 °F 88% 29.85 in 10.0 mi Calm Calm - N/A   Scattered Clouds
4:55 AM 72.3 °F - 69.3 °F 90% 29.85 in 10.0 mi SE 3.5 mph - 0.00 in   Scattered Clouds
5:55 AM 71.8 °F - 69.4 °F 92% 29.87 in 10.0 mi Calm Calm - N/A   Clear
6:55 AM 72.0 °F - 69.6 °F 92% 29.88 in 10.0 mi Variable 5.8 mph - N/A   Clear
7:55 AM 74.8 °F - 70.5 °F 86% 29.89 in 10.0 mi SSE 5.8 mph - N/A   Clear
8:46 AM 75.2 °F - 69.8 °F 83% 29.90 in 10.0 mi SSE 6.9 mph - N/A   Mostly Cloudy
8:55 AM 75.9 °F - 69.6 °F 81% 29.91 in 10.0 mi SSE 5.8 mph - N/A   Mostly Cloudy
9:25 AM 78.8 °F - 69.8 °F 74% 29.91 in 10.0 mi SSE 8.1 mph - N/A   Mostly Cloudy
9:36 AM 78.8 °F - 69.8 °F 74% 29.91 in 10.0 mi SSE 9.2 mph - N/A   Overcast
9:55 AM 79.5 °F - 69.6 °F 72% 29.92 in 10.0 mi South 10.4 mph - N/A   Mostly Cloudy
10:55 AM 80.4 °F 83.5 °F 69.4 °F 69% 29.92 in 10.0 mi SSE 10.4 mph 18.4 mph N/A   Scattered Clouds
11:55 AM 81.7 °F 84.9 °F 69.1 °F 65% 29.91 in 10.0 mi South 10.4 mph - N/A   Scattered Clouds
12:55 PM 82.2 °F 85.3 °F 68.5 °F 63% 29.89 in 10.0 mi SSE 10.4 mph 20.7 mph N/A   Scattered Clouds
1:55 PM 82.4 °F 85.4 °F 68.2 °F 62% 29.87 in 10.0 mi South 10.4 mph 19.6 mph N/A   Partly Cloudy
2:55 PM 82.0 °F 84.9 °F 67.8 °F 62% 29.86 in 10.0 mi SSE 8.1 mph - N/A   Clear
3:55 PM 81.0 °F 83.9 °F 68.5 °F 66% 29.86 in 10.0 mi SSE 11.5 mph 18.4 mph N/A   Clear
4:55 PM 79.0 °F - 68.0 °F 69% 29.88 in 10.0 mi South 8.1 mph - N/A   Clear
5:55 PM 76.3 °F - 68.7 °F 77% 29.90 in 10.0 mi South 9.2 mph - N/A   Partly Cloudy
6:55 PM 74.5 °F - 68.7 °F 82% 29.92 in 10.0 mi South 6.9 mph - N/A   Clear
7:55 PM 73.8 °F - 69.3 °F 86% 29.94 in 10.0 mi Variable 5.8 mph - N/A   Clear
8:55 PM 72.9 °F - 69.3 °F 88% 29.95 in 9.0 mi Variable 3.5 mph - N/A   Clear
9:46 PM 73.4 °F - 69.8 °F 88% 29.95 in 7.0 mi Variable 4.6 mph - N/A   Partly Cloudy
9:55 PM 72.7 °F - 69.6 °F 90% 29.96 in 7.0 mi SSE 3.5 mph - N/A   Scattered Clouds
9:58 PM 73.4 °F - 69.8 °F 88% 29.96 in 7.0 mi SE 3.5 mph - N/A   Mostly Cloudy
10:00 PM 73.4 °F - 69.8 °F 88% 29.96 in 7.0 mi Calm Calm - N/A   Mostly Cloudy
10:02 PM 73.4 °F - 69.8 °F 88% 29.96 in 7.0 mi Calm Calm - N/A   Mostly Cloudy
10:07 PM 73.4 °F - 69.8 °F 88% 29.96 in 7.0 mi Calm Calm - N/A   Mostly Cloudy
10:19 PM 71.6 °F - 69.8 °F 94% 29.96 in 7.0 mi SSE 3.5 mph - N/A   Mostly Cloudy
10:20 PM 71.6 °F - 69.8 °F 94% 29.96 in 7.0 mi SSE 3.5 mph - N/A   Mostly Cloudy
10:21 PM 71.6 °F - 69.8 °F 94% 29.96 in 7.0 mi SSE 3.5 mph - N/A   Mostly Cloudy
10:23 PM 71.6 °F - 69.8 °F 94% 29.96 in 7.0 mi SSE 3.5 mph - N/A   Scattered Clouds
10:53 PM 71.6 °F - 69.8 °F 94% 29.96 in 7.0 mi Calm Calm - N/A   Partly Cloudy
10:55 PM 71.8 °F - 69.1 °F 91% 29.96 in 7.0 mi Calm Calm - N/A   Partly Cloudy
11:16 PM 71.6 °F - 68.0 °F 88% 29.96 in 7.0 mi Calm Calm - N/A   Mostly Cloudy
11:54 PM 71.6 °F - 68.0 °F 88% 29.95 in 6.0 mi Calm Calm - N/A   Scattered Clouds
11:55 PM 71.2 °F - 68.9 °F 92% 29.95 in 6.0 mi Calm Calm - N/A   Scattered Clouds